Regional Weather Roundup
Issued by NWS

Home | Current Version | Previous Version | Graphics & Text | Print | Product List | Glossary On
Versions: 1 2 3 4 5 6 7 8 9 10 11 12 13 14 15 16 17 18 19 20 21 22 23 24 25 26 27 28 29 30 31 32 33 34 35 36 37 38 39 40 41 42 43 44 45 46 47 48 49 50
000
ASUS45 KSLC 311710
RWRUT

UTAH REGIONAL WEATHER ROUNDUP
NATIONAL WEATHER SERVICE SALT LAKE CITY UT
1100 AM MDT FRI JUL 31 2015

UTZ001>011-023>025-311800-

NORTHERN UTAH

CITY           SKY/WX    TMP DP  RH WIND       PRES   REMARKS
BRIGHAM CITY   SUNNY     77  35  21 CALM      30.26F
HILL AFB       MOSUNNY   78  38  23 E6        30.28F
LOGAN          SUNNY     71  34  25 S3        30.30F
OGDEN          SUNNY     81  34  18 NE5       30.26F
PROVO AIRPORT  MOSUNNY   73  46  38 VRB5      30.28F
SALT LAKE CITY MOSUNNY   83  33  16 N7        30.24F
VERNAL         SUNNY     78  22  12 CALM      30.31F
WENDOVER       SUNNY     82  36  18 E9        30.24F
HEBER CITY     SUNNY     70  32  24 CALM      30.36F
WEST JORDAN    SUNNY     81  36  19 CALM      30.28S

$$

UTZ012>022-026-027-311800-

SOUTHERN/CENTRAL UTAH

CITY           SKY/WX    TMP DP  RH WIND       PRES   REMARKS
BLANDING       CLOUDY    71  54  54 CALM      30.46F
BRYCE CANYON   PTSUNNY   72  47  40 SE6       30.49S
CEDAR CITY     CLOUDY    81  44  27 SW9       30.32S
DELTA          SUNNY     82  25  12 NE3       30.27F
HANKSVILLE     PTSUNNY   86  46  25 CALM      30.25F
MILFORD        CLOUDY    83  24  11 N5        30.28S
MOAB/CYNLANDS  SUNNY     87  52  29 E6        30.24F
PRICE          SUNNY     80  23  12 SE5       30.35S
ST GEORGE      SUNNY     88  52  29 W5        30.14F
KANAB          CLOUDY    81  52  36 NW5       30.34S

$$

REGIONAL REPORTS     COLORADO/ARIZONA

CITY           SKY/WX    TMP DP  RH WIND       PRES   REMARKS
CRAIG, CO      SUNNY     80  40  23 VRB3      30.37F
GRAND JUNCTION SUNNY     80  41  24 VRB6      30.28F
RIFLE          MOSUNNY   80  39  23 CALM      30.32F
MONTROSE       MOSUNNY   81  45  28 CALM      30.36F
CORTEZ         SUNNY     75  56  51 CALM      30.38F
PAGE, AZ       MOSUNNY   87  54  32 NW7       30.24F
GRAND CANYON   MOSUNNY   80  52  37 SW9       30.40F
KINGMAN        SUNNY     91  53  27 VRB3      30.15F
FLAGSTAFF      MOSUNNY   74  52  46 S8        30.44F

$$

REGIONAL REPORTS    NEVADA/IDAHO/WYOMING

CITY           SKY/WX    TMP DP  RH WIND       PRES   REMARKS
LAS VEGAS, NV  MOSUNNY   94  53  25 E6        30.01S HX  91
ELY            MOSUNNY   81  21  11 N10       30.38F
ELKO           MOSUNNY   75  27  17 CALM      30.30F
POCATELLO, ID  SUNNY     75  39  27 CALM      30.30S
BURLEY         SUNNY     78  40  25 E3        30.26S
EVANSTON, WY   MOSUNNY   73  29  19 VRB3      30.45S
ROCK SPRINGS   SUNNY     70  28  21 CALM      30.42F
KEMMERER       SUNNY     73  25  16 SW3       30.46S

$$



USA.gov is the U.S. government's official web portal to all federal, state and local government web resources and services.